^^
WesterhopeWX Station Historical Data
 
Daily Summary for October 21, 2018 Units:  Metric    English   Both
Daily Weekly Monthly Yearly Custom
  Current: High: Low: Average:
Temperature: 11.6 °C 17.1 °C 11.6 °C 14 °C
Dew Point: 7.9 °C 13.3 °C 7.9 °C 11.2 °C
Humidity: 78% 88% 76% 84%
Wind Speed: 3.2km/h 24.1km/h 0.0km/h 5.7km/h
Wind Gust: 11.3km/h 32.2km/h - -
WindNNW - - SW
Pressure: 1024.3 hPa 1024.3 hPa 1020.2 hPa -
Precipitation: 0.3 mm      
Historical Graphs
 
 
Tabular Data for October 21, 2018
Time Temperature Dew Point Pressure Wind Wind Speed Wind Gust Humidity Rainfall Rate (Hourly) solar
00:04 13.3 °C 11.2 °C 1024.3 hPa SW 4.7 km/h 6.4 km/h 87% 0.0 mm 0.00 W/m2
00:09 13.4 °C 11.3 °C 1024.3 hPa SW 4.7 km/h 6.4 km/h 87% 0.0 mm 0.00 W/m2
00:14 13.4 °C 11.3 °C 1024.3 hPa West 3.2 km/h 3.2 km/h 87% 0.0 mm 0.00 W/m2
00:19 13.5 °C 11.4 °C 1024.3 hPa SSW 6.4 km/h 8.0 km/h 87% 0.0 mm 0.00 W/m2
00:24 13.6 °C 11.5 °C 1024.3 hPa SW 4.7 km/h 6.4 km/h 87% 0.0 mm 0.00 W/m2
00:29 13.6 °C 11.3 °C 1023.9 hPa SW 6.4 km/h 11.3 km/h 86% 0.0 mm 0.00 W/m2
00:34 13.6 °C 11.3 °C 1023.9 hPa SW 4.7 km/h 8.0 km/h 86% 0.0 mm 0.00 W/m2
00:39 13.6 °C 11.3 °C 1023.9 hPa SSW 7.9 km/h 8.0 km/h 86% 0.0 mm 0.00 W/m2
00:44 13.5 °C 11.2 °C 1023.9 hPa SW 4.7 km/h 6.4 km/h 86% 0.0 mm 0.00 W/m2
00:49 13.6 °C 11.3 °C 1023.9 hPa WSW 3.2 km/h 4.8 km/h 86% 0.0 mm 0.00 W/m2
00:54 13.6 °C 11.3 °C 1023.9 hPa WSW 3.2 km/h 3.2 km/h 86% 0.0 mm 0.00 W/m2
00:59 13.6 °C 11.3 °C 1023.9 hPa Calm   1.6 km/h 86% 0.0 mm 0.00 W/m2
01:04 13.6 °C 11.3 °C 1023.9 hPa Calm     86% 0.0 mm 0.00 W/m2
01:09 13.5 °C 11.2 °C 1023.9 hPa Calm   3.2 km/h 86% 0.0 mm 0.00 W/m2
01:14 13.5 °C 11.4 °C 1023.9 hPa SW 1.4 km/h 4.8 km/h 87% 0.0 mm 0.00 W/m2
01:19 13.5 °C 11.4 °C 1023.6 hPa Calm   1.6 km/h 87% 0.0 mm 0.00 W/m2
01:24 13.5 °C 11.4 °C 1023.6 hPa Calm     87% 0.0 mm 0.00 W/m2
01:29 13.4 °C 11.3 °C 1023.6 hPa Calm     87% 0.0 mm 0.00 W/m2
01:34 13.5 °C 11.4 °C 1023.6 hPa Calm     87% 0.0 mm 0.00 W/m2
01:39 13.4 °C 11.3 °C 1023.6 hPa Calm     87% 0.0 mm 0.00 W/m2
01:44 13.4 °C 11.3 °C 1023.2 hPa Calm     87% 0.0 mm 0.00 W/m2
01:49 13.5 °C 11.4 °C 1023.2 hPa Calm     87% 0.0 mm 0.00 W/m2
01:54 13.5 °C 11.4 °C 1023.2 hPa Calm     87% 0.0 mm 0.00 W/m2
01:59 13.5 °C 11.4 °C 1023.2 hPa West 1.4 km/h 3.2 km/h 87% 0.0 mm 0.00 W/m2
02:04 13.5 °C 11.4 °C 1022.9 hPa NW 1.4 km/h 3.2 km/h 87% 0.0 mm 0.00 W/m2
02:09 13.4 °C 11.3 °C 1022.9 hPa NE 3.2 km/h 6.4 km/h 87% 0.0 mm 0.00 W/m2
02:14 13.4 °C 11.3 °C 1022.9 hPa NW 4.7 km/h 6.4 km/h 87% 0.0 mm 0.00 W/m2
02:19 13.4 °C 11.3 °C 1022.6 hPa NNW 3.2 km/h 4.8 km/h 87% 0.0 mm 0.00 W/m2
02:24 13.3 °C 11.2 °C 1022.6 hPa NW 3.2 km/h 4.8 km/h 87% 0.0 mm 0.00 W/m2
02:29 13.3 °C 11.4 °C 1022.6 hPa SSE 6.4 km/h 6.4 km/h 88% 0.0 mm 0.00 W/m2
02:34 13.4 °C 11.3 °C 1022.6 hPa SSW 4.7 km/h 6.4 km/h 87% 0.0 mm 0.00 W/m2
02:39 13.5 °C 11.4 °C 1022.6 hPa WSW 1.4 km/h 4.8 km/h 87% 0.0 mm 0.00 W/m2
02:44 13.6 °C 11.5 °C 1022.6 hPa WSW 3.2 km/h 4.8 km/h 87% 0.0 mm 0.00 W/m2
02:49 13.6 °C 11.5 °C 1022.6 hPa SW 1.4 km/h 4.8 km/h 87% 0.0 mm 0.00 W/m2
02:54 13.6 °C 11.5 °C 1022.6 hPa Calm   1.6 km/h 87% 0.0 mm 0.00 W/m2
02:59 13.6 °C 11.5 °C 1022.6 hPa WSW 3.2 km/h 4.8 km/h 87% 0.0 mm 0.00 W/m2
03:04 13.8 °C 11.8 °C 1022.6 hPa West 4.7 km/h 6.4 km/h 88% 0.0 mm 0.00 W/m2
03:09 14.1 °C 12.0 °C 1022.6 hPa WSW 3.2 km/h 4.8 km/h 87% 0.0 mm 0.00 W/m2
03:14 14.2 °C 12.1 °C 1022.6 hPa WSW 4.7 km/h 9.7 km/h 87% 0.0 mm 0.00 W/m2
03:19 14.3 °C 12.0 °C 1022.6 hPa Calm   4.8 km/h 86% 0.0 mm 0.00 W/m2
03:24 14.3 °C 11.8 °C 1022.2 hPa SW 1.4 km/h 3.2 km/h 85% 0.0 mm 0.00 W/m2
03:29 14.2 °C 11.7 °C 1022.2 hPa Calm   3.2 km/h 85% 0.0 mm 0.00 W/m2
03:34 14.2 °C 11.9 °C 1022.2 hPa SW 3.2 km/h 4.8 km/h 86% 0.0 mm 0.00 W/m2
03:39 14.2 °C 11.9 °C 1022.6 hPa WSW 3.2 km/h 3.2 km/h 86% 0.0 mm 0.00 W/m2
03:44 14.2 °C 11.9 °C 1022.2 hPa WSW 3.2 km/h 3.2 km/h 86% 0.0 mm 0.00 W/m2
03:49 14.2 °C 11.9 °C 1022.2 hPa Calm   3.2 km/h 86% 0.0 mm 0.00 W/m2
03:54 14.2 °C 11.9 °C 1022.2 hPa Calm   4.8 km/h 86% 0.0 mm 0.00 W/m2
03:59 14.2 °C 11.9 °C 1022.2 hPa Calm   3.2 km/h 86% 0.0 mm 0.00 W/m2
04:04 14.2 °C 11.9 °C 1021.9 hPa SSW 1.4 km/h 4.8 km/h 86% 0.0 mm 0.00 W/m2
04:09 14.1 °C 11.8 °C 1021.9 hPa Calm   3.2 km/h 86% 0.0 mm 0.00 W/m2
04:14 14.1 °C 11.8 °C 1021.9 hPa South 1.4 km/h 4.8 km/h 86% 0.0 mm 0.00 W/m2
04:19 14.1 °C 11.8 °C 1021.9 hPa Calm   4.8 km/h 86% 0.0 mm 0.00 W/m2
04:24 14.0 °C 11.9 °C 1021.9 hPa South 1.4 km/h 3.2 km/h 87% 0.0 mm 0.00 W/m2
04:29 14.0 °C 11.9 °C 1021.9 hPa WSW 7.9 km/h 8.0 km/h 87% 0.0 mm 0.00 W/m2
04:34 14.1 °C 12.0 °C 1021.9 hPa SSW 3.2 km/h 9.7 km/h 87% 0.0 mm 0.00 W/m2
04:39 14.1 °C 11.8 °C 1021.9 hPa SW 3.2 km/h 8.0 km/h 86% 0.0 mm 0.00 W/m2
04:44 14.2 °C 11.9 °C 1021.6 hPa SW 3.2 km/h 11.3 km/h 86% 0.0 mm 0.00 W/m2
04:49 14.2 °C 11.9 °C 1021.6 hPa SW 3.2 km/h 12.9 km/h 86% 0.0 mm 0.00 W/m2
04:54 14.2 °C 11.9 °C 1021.6 hPa SSW 3.2 km/h 11.3 km/h 86% 0.0 mm 0.00 W/m2
04:59 14.2 °C 11.9 °C 1021.6 hPa SSW 7.9 km/h 9.7 km/h 86% 0.0 mm 0.00 W/m2
05:04 14.3 °C 11.8 °C 1021.6 hPa SW 6.4 km/h 8.0 km/h 85% 0.0 mm 0.00 W/m2
05:09 14.3 °C 11.8 °C 1021.6 hPa Calm   3.2 km/h 85% 0.0 mm 0.00 W/m2
05:14 14.2 °C 11.7 °C 1021.2 hPa South 6.4 km/h 6.4 km/h 85% 0.0 mm 0.00 W/m2
05:19 14.1 °C 11.6 °C 1021.2 hPa Calm   1.6 km/h 85% 0.0 mm 0.00 W/m2
05:24 13.9 °C 11.4 °C 1021.2 hPa SSE 6.4 km/h 6.4 km/h 85% 0.0 mm 0.00 W/m2
05:29 13.8 °C 11.5 °C 1021.2 hPa SSW 1.4 km/h 6.4 km/h 86% 0.0 mm 0.00 W/m2
05:34 13.7 °C 11.4 °C 1021.2 hPa South 1.4 km/h 6.4 km/h 86% 0.0 mm 0.00 W/m2
05:39 13.7 °C 11.6 °C 1021.2 hPa SW 1.4 km/h 4.8 km/h 87% 0.0 mm 0.00 W/m2
05:44 13.7 °C 11.6 °C 1021.2 hPa SW 4.7 km/h 6.4 km/h 87% 0.0 mm 0.00 W/m2
05:49 13.7 °C 11.6 °C 1021.2 hPa WSW 6.4 km/h 12.9 km/h 87% 0.0 mm 0.00 W/m2
05:54 13.7 °C 11.6 °C 1021.6 hPa SW 3.2 km/h 9.7 km/h 87% 0.0 mm 0.00 W/m2
05:59 13.8 °C 11.7 °C 1021.6 hPa SW 6.4 km/h 9.7 km/h 87% 0.0 mm 0.00 W/m2
06:04 13.8 °C 11.7 °C 1021.2 hPa SW 4.7 km/h 8.0 km/h 87% 0.0 mm 0.00 W/m2
06:09 13.8 °C 11.5 °C 1021.2 hPa SW 7.9 km/h 16.1 km/h 86% 0.0 mm 0.00 W/m2
06:14 13.8 °C 11.5 °C 1021.2 hPa SW 7.9 km/h 14.5 km/h 86% 0.0 mm 0.00 W/m2
06:19 13.8 °C 11.5 °C 1021.2 hPa SW 1.4 km/h 11.3 km/h 86% 0.0 mm 0.00 W/m2
06:24 13.8 °C 11.5 °C 1021.2 hPa South 6.4 km/h 12.9 km/h 86% 0.0 mm 0.00 W/m2
06:29 13.8 °C 11.5 °C 1021.2 hPa SW 1.4 km/h 14.5 km/h 86% 0.0 mm 0.00 W/m2
06:34 13.7 °C 11.6 °C 1021.2 hPa SSW 6.4 km/h 12.9 km/h 87% 0.0 mm 0.00 W/m2
06:39 13.7 °C 11.6 °C 1021.2 hPa SSE 6.4 km/h 6.4 km/h 87% 0.0 mm 0.00 W/m2
06:44 13.6 °C 11.5 °C 1021.2 hPa SSW 3.2 km/h 6.4 km/h 87% 0.0 mm 0.00 W/m2
06:49 13.6 °C 11.5 °C 1020.9 hPa West 3.2 km/h 11.3 km/h 87% 0.0 mm 0.00 W/m2
06:54 13.6 °C 11.5 °C 1020.9 hPa SSE 3.2 km/h 4.8 km/h 87% 0.0 mm 0.00 W/m2
06:59 13.5 °C 11.4 °C 1020.9 hPa SW 3.2 km/h 8.0 km/h 87% 0.0 mm 0.00 W/m2
07:04 13.5 °C 11.4 °C 1020.9 hPa South 4.7 km/h 11.3 km/h 87% 0.0 mm 0.00 W/m2
07:09 13.5 °C 11.4 °C 1020.9 hPa SW 6.4 km/h 8.0 km/h 87% 0.0 mm 0.00 W/m2
07:14 13.5 °C 11.4 °C 1020.9 hPa WSW 3.2 km/h 4.8 km/h 87% 0.0 mm 0.00 W/m2
07:19 13.5 °C 11.4 °C 1020.9 hPa SW 3.2 km/h 11.3 km/h 87% 0.0 mm 0.00 W/m2
07:24 13.5 °C 11.4 °C 1021.2 hPa SSE 3.2 km/h 6.4 km/h 87% 0.0 mm 0.00 W/m2
07:29 13.5 °C 11.4 °C 1020.9 hPa SW 4.7 km/h 11.3 km/h 87% 0.0 mm 0.00 W/m2
07:34 13.5 °C 11.4 °C 1020.9 hPa SSE 6.4 km/h 8.0 km/h 87% 0.0 mm 0.00 W/m2
07:39 13.5 °C 11.4 °C 1020.9 hPa SSW 1.4 km/h 3.2 km/h 87% 0.0 mm 0.00 W/m2
07:44 13.5 °C 11.2 °C 1020.9 hPa Calm   3.2 km/h 86% 0.0 mm 0.00 W/m2
07:49 13.4 °C 11.1 °C 1020.9 hPa WSW 1.4 km/h 1.6 km/h 86% 0.0 mm 5.00 W/m2
07:54 13.4 °C 11.1 °C 1020.9 hPa Calm   3.2 km/h 86% 0.0 mm 7.00 W/m2
07:59 13.4 °C 11.1 °C 1020.9 hPa SSW 6.4 km/h 11.3 km/h 86% 0.0 mm 7.00 W/m2
08:04 13.5 °C 11.2 °C 1020.9 hPa West 9.7 km/h 9.7 km/h 86% 0.0 mm 9.00 W/m2
08:09 13.7 °C 11.4 °C 1020.9 hPa SW 4.7 km/h 9.7 km/h 86% 0.0 mm 9.00 W/m2
08:14 13.9 °C 11.4 °C 1020.9 hPa SW 4.7 km/h 16.1 km/h 85% 0.0 mm 9.00 W/m2
08:19 14.0 °C 11.3 °C 1020.9 hPa WSW 6.4 km/h 8.0 km/h 84% 0.0 mm 14.00 W/m2
08:24 14.0 °C 11.3 °C 1020.9 hPa SSW 7.9 km/h 9.7 km/h 84% 0.0 mm 19.00 W/m2
08:29 14.0 °C 11.3 °C 1020.9 hPa South 4.7 km/h 9.7 km/h 84% 0.0 mm 26.00 W/m2
08:34 14.1 °C 11.4 °C 1020.9 hPa Calm   4.8 km/h 84% 0.0 mm 28.00 W/m2
08:39 14.0 °C 11.3 °C 1020.9 hPa SSW 3.2 km/h 8.0 km/h 84% 0.0 mm 33.00 W/m2
08:44 14.0 °C 11.3 °C 1020.5 hPa South 6.4 km/h 6.4 km/h 84% 0.0 mm 37.00 W/m2
08:49 14.0 °C 11.3 °C 1020.5 hPa SE 6.4 km/h 6.4 km/h 84% 0.0 mm 30.00 W/m2
08:54 14.1 °C 11.4 °C 1020.5 hPa SW 1.4 km/h 9.7 km/h 84% 0.0 mm 25.00 W/m2
08:59 14.1 °C 11.3 °C 1020.5 hPa SSW 3.2 km/h 12.9 km/h 83% 0.0 mm 25.00 W/m2
09:04 14.2 °C 11.4 °C 1020.5 hPa SSW 4.7 km/h 11.3 km/h 83% 0.0 mm 23.00 W/m2
09:09 14.2 °C 11.4 °C 1020.5 hPa SSW 13.0 km/h 12.9 km/h 83% 0.0 mm 21.00 W/m2
09:14 14.2 °C 11.2 °C 1020.5 hPa SSW 13.0 km/h 16.1 km/h 82% 0.0 mm 25.00 W/m2
09:19 14.2 °C 11.2 °C 1020.5 hPa SW 7.9 km/h 17.7 km/h 82% 0.0 mm 21.00 W/m2
09:24 14.1 °C 11.3 °C 1020.5 hPa SW 7.9 km/h 16.1 km/h 83% 0.0 mm 23.00 W/m2
09:29 14.1 °C 11.3 °C 1020.5 hPa WSW 6.4 km/h 16.1 km/h 83% 0.0 mm 25.00 W/m2
09:34 14.1 °C 11.3 °C 1020.2 hPa SW 4.7 km/h 16.1 km/h 83% 0.0 mm 30.00 W/m2
09:39 14.1 °C 11.3 °C 1020.5 hPa SSE 7.9 km/h 11.3 km/h 83% 0.0 mm 56.00 W/m2
09:44 14.3 °C 11.5 °C 1020.5 hPa WSW 17.7 km/h 20.9 km/h 83% 0.0 mm 40.00 W/m2
09:49 14.3 °C 11.5 °C 1020.5 hPa SW 13.0 km/h 14.5 km/h 83% 0.0 mm 42.00 W/m2
09:54 14.6 °C 11.6 °C 1020.5 hPa SSW 20.9 km/h 25.7 km/h 82% 0.0 mm 40.00 W/m2
09:59 14.8 °C 11.8 °C 1020.5 hPa WSW 9.7 km/h 19.3 km/h 82% 0.0 mm 77.00 W/m2
10:04 14.9 °C 11.7 °C 1020.2 hPa SW 9.7 km/h 24.1 km/h 81% 0.0 mm 65.00 W/m2
10:09 14.9 °C 11.7 °C 1020.2 hPa West 19.5 km/h 20.9 km/h 81% 0.0 mm 30.00 W/m2
10:14 14.8 °C 11.6 °C 1020.2 hPa SSW 22.7 km/h 24.1 km/h 81% 0.0 mm 49.00 W/m2
10:19 14.8 °C 11.8 °C 1020.2 hPa WNW 7.9 km/h 24.1 km/h 82% 0.0 mm 54.00 W/m2
10:24 14.8 °C 11.8 °C 1020.2 hPa SSW 7.9 km/h 25.7 km/h 82% 0.0 mm 79.00 W/m2
10:29 15.2 °C 12.0 °C 1020.2 hPa SW 4.7 km/h 32.2 km/h 81% 0.0 mm 86.00 W/m2
10:34 15.2 °C 11.8 °C 1020.2 hPa SSW 14.3 km/h 27.4 km/h 80% 0.0 mm 67.00 W/m2
10:39 15.0 °C 11.6 °C 1020.2 hPa SSW 13.0 km/h 30.6 km/h 80% 0.0 mm 69.00 W/m2
10:44 15.0 °C 11.8 °C 1020.2 hPa WSW 11.1 km/h 19.3 km/h 81% 0.0 mm 120.00 W/m2
10:49 15.1 °C 11.9 °C 1020.2 hPa SSW 9.7 km/h 22.5 km/h 81% 0.0 mm 128.00 W/m2
10:54 15.1 °C 11.9 °C 1020.2 hPa SW 6.4 km/h 11.3 km/h 81% 0.0 mm 81.00 W/m2
10:59 15.1 °C 11.9 °C 1020.2 hPa SW 6.4 km/h 11.3 km/h 81% 0.0 mm 70.00 W/m2
11:04 15.0 °C 11.8 °C 1020.2 hPa SSE 9.7 km/h 9.7 km/h 81% 0.0 mm 83.00 W/m2
11:09 15.0 °C 11.8 °C 1020.2 hPa South 1.4 km/h 8.0 km/h 81% 0.0 mm 97.00 W/m2
11:14 15.1 °C 11.9 °C 1020.2 hPa SW 4.7 km/h 16.1 km/h 81% 0.0 mm 77.00 W/m2
11:19 15.6 °C 12.4 °C 1020.2 hPa SSW 1.4 km/h 12.9 km/h 81% 0.0 mm 127.00 W/m2
11:24 15.9 °C 12.5 °C 1020.2 hPa SSW 19.5 km/h 19.3 km/h 80% 0.0 mm 98.00 W/m2
11:29 16.1 °C 12.3 °C 1020.2 hPa SW 17.7 km/h 17.7 km/h 78% 0.0 mm 128.00 W/m2
11:34 16.3 °C 12.5 °C 1020.2 hPa West 16.3 km/h 16.1 km/h 78% 0.0 mm 118.00 W/m2
11:39 16.5 °C 12.7 °C 1020.2 hPa SW 4.7 km/h 9.7 km/h 78% 0.0 mm 151.00 W/m2
11:44 16.8 °C 12.7 °C 1020.2 hPa SW 9.7 km/h 14.5 km/h 77% 0.0 mm 190.00 W/m2
11:49 16.8 °C 12.7 °C 1020.2 hPa SSW 11.1 km/h 14.5 km/h 77% 0.0 mm 114.00 W/m2
11:54 16.9 °C 12.8 °C 1020.2 hPa SW 6.4 km/h 12.9 km/h 77% 0.0 mm 98.00 W/m2
11:59 16.9 °C 12.8 °C 1020.2 hPa SSW 4.7 km/h 16.1 km/h 77% 0.0 mm 216.00 W/m2
12:04 17.1 °C 13.0 °C 1020.2 hPa SW 4.7 km/h 16.1 km/h 77% 0.0 mm 169.00 W/m2
12:09 17.0 °C 12.9 °C 1020.2 hPa NW 24.1 km/h 24.1 km/h 77% 0.0 mm 65.00 W/m2
12:14 16.9 °C 13.0 °C 1020.2 hPa South 13.0 km/h 17.7 km/h 78% 0.0 mm 77.00 W/m2
12:19 16.8 °C 12.9 °C 1020.2 hPa West 16.3 km/h 16.1 km/h 78% 0.0 mm 77.00 W/m2
12:24 16.7 °C 12.8 °C 1020.5 hPa WSW 16.3 km/h 29.0 km/h 78% 0.0 mm 144.00 W/m2
12:29 16.7 °C 12.8 °C 1020.5 hPa SW 7.9 km/h 17.7 km/h 78% 0.0 mm 148.00 W/m2
12:34 16.7 °C 13.0 °C 1020.2 hPa SSW 16.3 km/h 24.1 km/h 79% 0.0 mm 179.00 W/m2
12:39 16.6 °C 12.9 °C 1020.2 hPa SSW 14.3 km/h 19.3 km/h 79% 0.0 mm 265.00 W/m2
12:44 16.4 °C 12.9 °C 1020.5 hPa SSW 11.1 km/h 17.7 km/h 80% 0.0 mm 207.00 W/m2
12:49 16.4 °C 13.1 °C 1020.5 hPa WSW 13.0 km/h 22.5 km/h 81% 0.0 mm 142.00 W/m2
12:54 16.1 °C 13.2 °C 1020.5 hPa SW 9.7 km/h 16.1 km/h 83% 0.0 mm 109.00 W/m2
12:59 15.7 °C 13.2 °C 1020.5 hPa SW 14.3 km/h 14.5 km/h 85% 0.0 mm 172.00 W/m2
13:04 15.6 °C 13.3 °C 1020.9 hPa SSW 7.9 km/h 22.5 km/h 86% 0.0 mm 209.00 W/m2
13:09 15.3 °C 13.0 °C 1020.9 hPa WNW 13.0 km/h 22.5 km/h 86% 0.0 mm 165.00 W/m2
13:14 15.2 °C 12.9 °C 1021.2 hPa SSW 7.9 km/h 12.9 km/h 86% 0.0 mm 111.00 W/m2
13:19 15.0 °C 12.9 °C 1021.2 hPa SSW 1.4 km/h 19.3 km/h 87% 0.0 mm 74.00 W/m2
13:24 14.8 °C 12.7 °C 1021.6 hPa SSE 6.4 km/h 19.3 km/h 87% 0.0 mm 21.00 W/m2
13:29 13.5 °C 10.8 °C 1021.9 hPa NW 20.9 km/h 20.9 km/h 84% 0.3 mm 37.00 W/m2
13:34 12.7 °C 10.4 °C 1021.9 hPa NE 3.2 km/h 14.5 km/h 86% 0.3 mm 53.00 W/m2
13:39 12.3 °C 10.2 °C 1021.9 hPa NW 20.9 km/h 20.9 km/h 87% 0.3 mm 58.00 W/m2
13:44 12.2 °C 10.3 °C 1022.2 hPa NNW 17.7 km/h 17.7 km/h 88% 0.3 mm 67.00 W/m2
13:49 12.1 °C 10.0 °C 1022.2 hPa NNE 4.7 km/h 12.9 km/h 87% 0.3 mm 95.00 W/m2
13:54 12.1 °C 10.0 °C 1022.2 hPa NNE 4.7 km/h 12.9 km/h 87% 0.3 mm 111.00 W/m2
13:59 12.1 °C 10.0 °C 1022.2 hPa North 3.2 km/h 8.0 km/h 87% 0.3 mm 113.00 W/m2
14:04 12.2 °C 9.9 °C 1022.2 hPa NW 3.2 km/h 12.9 km/h 86% 0.3 mm 107.00 W/m2
14:09 12.3 °C 10.0 °C 1022.2 hPa Calm   12.9 km/h 86% 0.3 mm 121.00 W/m2
14:14 12.5 °C 10.4 °C 1022.2 hPa NNW 7.9 km/h 12.9 km/h 87% 0.3 mm 169.00 W/m2
14:19 12.6 °C 10.3 °C 1022.2 hPa WNW 4.7 km/h 11.3 km/h 86% 0.3 mm 162.00 W/m2
14:24 12.8 °C 10.3 °C 1022.2 hPa NW 1.4 km/h 14.5 km/h 85% 0.3 mm 193.00 W/m2
14:29 12.9 °C 10.3 °C 1022.2 hPa WSW 7.9 km/h 8.0 km/h 84% 0.0 mm 190.00 W/m2
14:34 13.3 °C 10.5 °C 1022.2 hPa NNE 1.4 km/h 4.8 km/h 83% 0.0 mm 213.00 W/m2
14:39 13.4 °C 10.4 °C 1021.9 hPa WSW 1.4 km/h 6.4 km/h 82% 0.0 mm 171.00 W/m2
14:44 13.5 °C 10.3 °C 1022.2 hPa WSW 9.7 km/h 11.3 km/h 81% 0.0 mm 171.00 W/m2
14:49 13.5 °C 10.1 °C 1021.9 hPa WNW 4.7 km/h 8.0 km/h 80% 0.0 mm 158.00 W/m2
14:54 13.5 °C 10.3 °C 1021.9 hPa NNW 3.2 km/h 14.5 km/h 81% 0.0 mm 186.00 W/m2
14:59 13.8 °C 10.6 °C 1022.2 hPa North 4.7 km/h 9.7 km/h 81% 0.0 mm 146.00 W/m2
15:04 14.1 °C 10.5 °C 1022.2 hPa East 1.4 km/h 6.4 km/h 79% 0.0 mm 137.00 W/m2
15:09 13.8 °C 9.6 °C 1022.6 hPa SSW 7.9 km/h 22.5 km/h 76% 0.0 mm 125.00 W/m2
15:14 13.6 °C 9.6 °C 1022.6 hPa North 3.2 km/h 4.8 km/h 77% 0.0 mm 65.00 W/m2
15:19 13.4 °C 9.4 °C 1022.6 hPa South 4.7 km/h 16.1 km/h 77% 0.0 mm 54.00 W/m2
15:24 13.2 °C 9.4 °C 1022.6 hPa SSW 3.2 km/h 9.7 km/h 78% 0.0 mm 169.00 W/m2
15:29 13.2 °C 9.6 °C 1022.6 hPa South 9.7 km/h 9.7 km/h 79% 0.0 mm 91.00 W/m2
15:34 13.3 °C 9.7 °C 1022.9 hPa NNW 6.4 km/h 9.7 km/h 79% 0.0 mm 79.00 W/m2
15:39 13.3 °C 9.7 °C 1022.9 hPa WNW 7.9 km/h 8.0 km/h 79% 0.0 mm 98.00 W/m2
15:44 13.3 °C 9.7 °C 1022.9 hPa NNW 3.2 km/h 9.7 km/h 79% 0.0 mm 107.00 W/m2
15:49 13.2 °C 9.4 °C 1022.9 hPa North 4.7 km/h 8.0 km/h 78% 0.0 mm 114.00 W/m2
15:54 13.1 °C 9.5 °C 1023.2 hPa West 4.7 km/h 8.0 km/h 79% 0.0 mm 90.00 W/m2
15:59 12.9 °C 9.3 °C 1023.2 hPa SW 11.1 km/h 16.1 km/h 79% 0.0 mm 91.00 W/m2
16:04 12.8 °C 9.4 °C 1023.2 hPa NNE 3.2 km/h 4.8 km/h 80% 0.0 mm 54.00 W/m2
16:09 12.7 °C 9.3 °C 1023.2 hPa ESE 3.2 km/h 11.3 km/h 80% 0.0 mm 76.00 W/m2
16:14 12.5 °C 9.3 °C 1023.2 hPa SSW 4.7 km/h 9.7 km/h 81% 0.0 mm 86.00 W/m2
16:19 12.5 °C 9.5 °C 1023.2 hPa South 3.2 km/h 4.8 km/h 82% 0.0 mm 195.00 W/m2
16:24 12.9 °C 9.7 °C 1023.2 hPa SSW 3.2 km/h 9.7 km/h 81% 0.0 mm 185.00 W/m2
16:29 13.0 °C 9.8 °C 1023.2 hPa SW 1.4 km/h 6.4 km/h 81% 0.0 mm 197.00 W/m2
16:34 13.1 °C 9.4 °C 1023.2 hPa SSE 6.4 km/h 9.7 km/h 78% 0.0 mm 74.00 W/m2
16:39 12.8 °C 9.1 °C 1023.2 hPa SSE 3.2 km/h 12.9 km/h 78% 0.0 mm 83.00 W/m2
16:44 12.7 °C 9.2 °C 1023.2 hPa SSW 1.4 km/h 4.8 km/h 79% 0.0 mm 137.00 W/m2
16:49 12.7 °C 8.8 °C 1023.2 hPa WNW 4.7 km/h 6.4 km/h 77% 0.0 mm 63.00 W/m2
16:54 12.6 °C 8.5 °C 1023.6 hPa SE 1.4 km/h 8.0 km/h 76% 0.0 mm 97.00 W/m2
16:59 12.5 °C 8.4 °C 1023.2 hPa SW 7.9 km/h 9.7 km/h 76% 0.0 mm 62.00 W/m2
17:04 12.4 °C 8.3 °C 1023.6 hPa SW 4.7 km/h 12.9 km/h 76% 0.0 mm 51.00 W/m2
17:09 12.3 °C 8.4 °C 1023.6 hPa WNW 14.3 km/h 16.1 km/h 77% 0.0 mm 35.00 W/m2
17:14 12.1 °C 8.2 °C 1023.9 hPa NNW 9.7 km/h 20.9 km/h 77% 0.0 mm 26.00 W/m2
17:19 11.9 °C 8.0 °C 1023.9 hPa South 7.9 km/h 11.3 km/h 77% 0.0 mm 21.00 W/m2
17:24 11.8 °C 7.9 °C 1024.3 hPa SW 6.4 km/h 8.0 km/h 77% 0.0 mm 18.00 W/m2
17:29 11.6 °C 7.9 °C 1024.3 hPa NNW 3.2 km/h 11.3 km/h 78% 0.0 mm 14.00 W/m2
Westerhope, Newcastle upon Tyne, UK
Compliments of Weather Underground - 4 mb